Tracking 19145 objects as of 25-Apr-2018
HD Live streaming from Space Station
objects crossing your sky now

FENGYUN 1C DEB

Track FENGYUN 1C DEB now!
10-day predictions


NORAD ID: 31260
Int'l Code: 1999-025BMS
Perigee: 773.5 km
Apogee: 852.0 km
Inclination: 98.9 °
Period: 101.0 minutes
Semi major axis: 7183 km
RCS: 0.0022 m2 (small)
Launch date: May 10, 1999
Source: People's Republic of China (PRC)
Launch site: Taiyaun Space Center, China (TSC)

Note: This is SATELLITE DEBRIS
aabbcc
Your satellite tracking list
Your tracking list is empty




NASA's NSSDC Master Catalog

Two Line Element Set (TLE):
1 31260U 99025BMS 18113.55451597  .00000487  00000-0  22021-3 0  9991
2 31260  98.9445 239.0456 0054693  92.5456 329.4355 14.25860376573716
Source of the keplerian elements: AFSPC